Sioux City, IA

1:47 AM CST on February 21, 2018 (GMT -0600)
Sioux Gateway

Weather History for KSUX - April, 2013

Change the Weather History Date:

Sunday, April 21, 2013

  Actual Average Record
Temperature  
Mean Temperature 51 °F 52 °F  
Max Temperature 65 °F 65 °F 94 °F (1980)
Min Temperature 36 °F 39 °F 23 °F (1966)
Degree Days  
Heating Degree Days 14 14  
Month to date heating degree days 509 369  
Since 1 July heating degree days 6705 6547  
Cooling Degree Days 0 1  
Month to date cooling degree days 0 1  
Year to date cooling degree days 0 1  
Moisture  
Dew Point 37 °F    
Average Humidity 63    
Maximum Humidity 86    
Minimum Humidity 40    
Precipitation  
Precipitation 0.03 in 0.11 in 1.00 in (1891)
Month to date precipitation 4.13 1.99  
Year to date precipitation 7.33 5.28  
Snow  
Snow 0.00 in 0.10 in 1.00 in (1927)
Month to date snowfall 9.7 1.6  
Since 1 July snowfall 42.2 34.6  
Snow Depth 0.00 in    
Sea Level Pressure  
Sea Level Pressure 30.10 in    
Wind  
Wind Speed 13 mph (ESE)    
Max Wind Speed 24 mph    
Max Gust Speed 31 mph    
Visibility 10 miles    
Events Rain    
T = Trace of Precipitation, MM = Missing Value Source: NWS Daily Summary

Daily Weather History Graph

Daily Weather History Graph

Search for Another Location

Airport or City:

Trip Planner

Search our weather history database for the weather conditions in past years. The results will help you decide how hot, cold, wet, or windy it might be!

Date:

Astronomy

Apr. 21, 2013 Rise Set
Actual Time 6:34 AM CDT 8:14 PM CDT
Civil Twilight 6:04 AM CDT 8:44 PM CDT
Nautical Twilight 5:29 AM CDT 9:20 PM CDT
Astronomical Twilight 4:50 AM CDT 9:59 PM CDT
Moon 3:56 PM CDT 4:02 AM CDT
Length of Visible Light 14h 39m
Length of Day
13h 39m
Waxing Gibbous, 80% of the Moon is Illuminated
Apr 21
Waxing Gibbous
Apr 25
Full
May 2
Last Quarter
May 9
New
May 17
First Quarter

Hourly Weather History & Observations

Time (CDT) Temp. Windchill Dew Point Humidity Pressure Visibility Wind Dir Wind Speed Gust Speed Precip Events Conditions
12:52 AM 37.0 °F 29.8 °F 27.0 °F 67% 30.18 in 10.0 mi ESE 10.4 mph - N/A   Mostly Cloudy
1:52 AM 39.0 °F 31.8 °F 28.0 °F 65% 30.16 in 10.0 mi ESE 11.5 mph - N/A   Overcast
2:52 AM 39.0 °F 32.3 °F 28.9 °F 67% 30.14 in 10.0 mi ESE 10.4 mph - N/A   Overcast
3:52 AM 37.9 °F 32.1 °F 28.9 °F 70% 30.13 in 10.0 mi ESE 8.1 mph - N/A   Overcast
4:52 AM 37.9 °F 32.1 °F 30.0 °F 73% 30.12 in 10.0 mi ESE 8.1 mph - N/A   Overcast
5:52 AM 37.9 °F 31.5 °F 30.9 °F 76% 30.11 in 10.0 mi ESE 9.2 mph - 0.00 in   Mostly Cloudy
6:52 AM 37.9 °F 31.5 °F 30.0 °F 73% 30.11 in 10.0 mi ESE 9.2 mph - N/A   Partly Cloudy
7:52 AM 39.0 °F 33.4 °F 32.0 °F 76% 30.11 in 10.0 mi SE 8.1 mph - N/A   Clear
8:52 AM 46.0 °F 39.6 °F 35.1 °F 66% 30.10 in 10.0 mi SSE 15.0 mph - N/A   Overcast
9:52 AM 50.0 °F - 37.0 °F 61% 30.09 in 10.0 mi SE 12.7 mph - N/A   Mostly Cloudy
10:52 AM 57.0 °F - 39.9 °F 53% 30.08 in 10.0 mi South 17.3 mph - N/A   Scattered Clouds
11:52 AM 59.0 °F - 39.9 °F 49% 30.06 in 10.0 mi SSW 20.7 mph - N/A   Scattered Clouds
12:52 PM 60.1 °F - 41.0 °F 49% 30.04 in 10.0 mi SSW 15.0 mph - N/A   Overcast
1:52 PM 61.0 °F - 39.9 °F 46% 30.04 in 10.0 mi SW 18.4 mph 25.3 mph N/A   Overcast
2:52 PM 62.1 °F - 41.0 °F 46% 30.02 in 10.0 mi WSW 11.5 mph - 0.00 in   Overcast
3:52 PM 64.0 °F - 39.9 °F 41% 30.01 in 10.0 mi SW 23.0 mph 26.5 mph N/A   Overcast
4:52 PM 60.1 °F - 42.1 °F 51% 30.02 in 10.0 mi WNW 13.8 mph - N/A   Overcast
5:52 PM 54.0 °F - 46.9 °F 77% 30.06 in 8.0 mi NW 8.1 mph - 0.02 in Rain Light Rain
6:52 PM 55.9 °F - 46.9 °F 72% 30.06 in 10.0 mi North 12.7 mph - 0.01 in   Partly Cloudy
7:52 PM 53.1 °F - 45.0 °F 74% 30.08 in 10.0 mi North 13.8 mph - N/A   Partly Cloudy
8:52 PM 46.9 °F - 42.1 °F 83% 30.12 in 10.0 mi North 12.7 mph - N/A   Clear
9:28 PM 46.4 °F 40.7 °F 41.0 °F 81% 30.13 in 10.0 mi North 12.7 mph - N/A   Mostly Cloudy
9:52 PM 46.0 °F 40.6 °F 41.0 °F 83% 30.16 in 10.0 mi NNE 11.5 mph - N/A   Overcast
10:52 PM 44.1 °F 37.4 °F 37.9 °F 79% 30.18 in 10.0 mi North 13.8 mph 19.6 mph N/A   Overcast
11:52 PM 43.0 °F 36.4 °F 37.0 °F 80% 30.18 in 10.0 mi North 12.7 mph - N/A   Overcast